Location: Tamazert
(32.6352°N, 5.2072°W)
Time: 14:53:44
(UTC+00:00)

Transit 2A Rocket - All Passes

Search period start: 03 October 2022 00:00
Search period end: 13 October 2022 00:00
Orbit: 593 x 908 km, 66.7° (Epoch: 02 October)

Date Brightness Start Highest point End Pass type
(mag) Time Alt. Az. Time Alt. Az. Time Alt. Az.
03 Oct - 05:23:22 10° SSW 05:27:44 74° ESE 05:32:01 10° NNE visible
03 Oct - 14:10:34 10° N 14:14:25 22° ENE 14:18:28 10° ESE daylight
03 Oct - 15:52:15 10° NW 15:56:59 40° WSW 16:02:07 10° S daylight
04 Oct - 04:41:00 10° S 04:44:57 34° ESE 04:48:50 10° NE visible
04 Oct - 06:24:37 10° W 06:27:30 17° NW 06:30:22 10° NNW daylight
04 Oct - 13:29:15 10° NNE 13:31:14 12° NE 13:33:18 10° ENE daylight
04 Oct - 15:09:07 10° NNW 15:14:10 78° WSW 15:19:41 10° SSE daylight
05 Oct - 03:59:31 10° SSE 04:02:15 16° ESE 04:04:56 10° ENE visible
05 Oct - 05:40:30 10° SW 05:44:26 33° WNW 05:48:19 10° N visible
05 Oct - 14:26:20 10° NNW 14:31:17 57° ENE 14:36:40 10° SE daylight
05 Oct - 16:10:37 10° WNW 16:13:27 15° WSW 16:16:23 10° SW daylight
06 Oct - 04:57:09 10° SSW 05:01:29 69° WNW 05:05:46 10° NNE visible
06 Oct - 13:43:52 10° N 13:48:18 31° ENE 13:53:05 10° ESE daylight
06 Oct - 15:26:23 10° NW 15:30:43 28° WSW 15:35:22 10° SSW daylight
07 Oct - 04:14:24 10° S 04:18:38 54° ESE 04:22:50 10° NE visible
07 Oct - 05:59:56 10° WNW 06:01:27 12° NW 06:02:58 10° NNW daylight
07 Oct - 13:01:51 10° NNE 13:05:14 18° NE 13:08:45 10° E daylight
07 Oct - 14:42:59 10° NW 14:47:56 52° WSW 14:53:19 10° S daylight
08 Oct - 03:32:18 10° SSE 03:35:53 25° ESE 03:39:26 10° NE visible
08 Oct - 05:14:55 10° WSW 05:18:17 22° WNW 05:21:40 10° N visible
08 Oct - 14:00:00 10° NNW 14:05:04 83° ENE 14:10:38 10° SSE daylight
09 Oct - 02:51:34 10° SE 02:53:13 12° ESE 02:54:52 10° E visible
09 Oct - 04:31:08 10° SW 04:35:16 43° WNW 04:39:22 10° NNE visible
09 Oct - 13:17:19 10° NNW 13:22:09 45° ENE 13:27:24 10° SE daylight
09 Oct - 15:00:47 10° WNW 15:04:26 19° WSW 15:08:15 10° SSW daylight
10 Oct - 03:48:00 10° SSW 03:52:21 87° ESE 03:56:40 10° NNE visible
10 Oct - 12:34:59 10° N 12:39:08 25° ENE 12:43:33 10° ESE daylight
10 Oct - 14:16:59 10° NW 14:21:40 36° WSW 14:26:43 10° S daylight
11 Oct - 03:05:29 10° S 03:09:33 39° ESE 03:13:34 10° NE visible
11 Oct - 04:49:41 10° W 04:52:11 15° NW 04:54:42 10° NNW visible
11 Oct - 11:53:18 10° NNE 11:56:00 14° NE 11:58:48 10° E daylight
11 Oct - 13:33:45 10° NNW 13:38:51 68° WSW 13:44:24 10° SSE daylight
12 Oct - 02:23:46 10° SSE 02:26:50 19° ESE 02:29:52 10° ENE night (unlit)
12 Oct - 04:05:20 10° WSW 04:09:04 28° WNW 04:12:49 10° N visible
12 Oct - 12:50:53 10° NNW 12:55:58 66° ENE 13:01:30 10° SE daylight
12 Oct - 14:35:45 10° W 14:38:05 13° WSW 14:40:29 10° SW daylight
